Regional Weather Roundup
Issued by NWS

Home | Current Version | Previous Version | Text Only | Print | Product List | Glossary Off
Versions: 1 2 3 4 5 6 7 8 9 10 11 12 13 14 15 16 17 18 19 20 21 22 23 24 25 26 27 28 29 30 31 32 33 34 35 36 37 38 39 40 41 42 43 44 45 46 47 48 49 50

000
ASUS45 KPSR 031600
RWRAZ

ARIZONA REGIONAL HOURLY WEATHER ROUNDUP
NATIONAL WEATHER SERVICE PHOENIX AZ
900 AM MST SUN MAY 03 2015

NOTE: FAIR INDICATES FEW OR NO CLOUDS BELOW 12,000 FEET WITH NO
SIGNIFICANT WEATHER AND/OR OBSTRUCTIONS TO VISIBILITY.

AZZ001>003-036-031700-
NORTHWEST ARIZONA

CITY           SKY/WX    TMP DP  RH WIND       PRES   REMARKS
KINGMAN        MOSUNNY   76  31  19 SE17      29.95R
$$

AZZ004>008-015-016-018-031700-
NORTH CENTRAL ARIZONA

CITY           SKY/WX    TMP DP  RH WIND       PRES   REMARKS
GRAND CANYON   MOSUNNY   62  34  35 SW12G21   30.13S
WILLIAMS       PTSUNNY   63  32  31 SE10      30.19R
PRESCOTT       MOSUNNY   67  35  30 SE10      30.07R
FLAGSTAFF      NOT AVBL
PAYSON         MOSUNNY   68  37  32 CALM      30.10S
PAGE           PTSUNNY   68  35  29 W3        29.99R
$$

AZZ009>014-017-031700-
NORTHEAST ARIZONA

CITY           SKY/WX    TMP DP  RH WIND       PRES   REMARKS
WINSLOW        NOT AVBL
SAINT JOHNS    MOSUNNY   66  36  32 NW9       30.08F
WINDOW ROCK    SUNNY     61  41  47 CALM      30.13S
SHOW LOW       MOSUNNY   61  32  33 SW17      30.15S
$$

AZZ023-031700-
GREATER PHOENIX AREA

CITY           SKY/WX    TMP DP  RH WIND       PRES   REMARKS
PHOENIX        MOSUNNY   83  45  26 SE9       29.88R
GLENDALE       MOSUNNY   82  46  28 E6        29.90R
LUKE AFB       SUNNY     82  46  28 VRB1      29.87S HAZE
DEER VALLEY    SUNNY     80  41  24 CALM      29.89S
SCOTTSDALE     SUNNY     82  41  23 E7        29.91S
MESA-GATEWAY   MOSUNNY   81  45  28 CALM      29.92R
$$

AZZ027-028-031700-
SOUTHWEST MARICOPA COUNTY AND PINAL COUNTY

CITY           SKY/WX    TMP DP  RH WIND       PRES   REMARKS
CASA GRANDE    SUNNY     81  45  28 CALM      29.90S
$$

AZZ503-504-507>509-031700-
SOUTHEAST ARIZONA

CITY           SKY/WX    TMP DP  RH WIND       PRES   REMARKS
TUCSON         SUNNY     77  44  30 CALM      29.98S
RYAN FIELD       N/A     79  45  29 N5        29.97
NOGALES        SUNNY     75  38  26 SE14G21   30.02S
SAFFORD        MOSUNNY   77  42  28 W9        29.97S
$$

AZZ020-021-025-026-031-031700-
SOUTHWEST ARIZONA

CITY           SKY/WX    TMP DP  RH WIND       PRES   REMARKS
YUMA           SUNNY     82  55  39 SE17      29.81R
$$

CAZ031-033-041-043-047-048-061-031700-
SOUTHERN CALIFORNIA

CITY           SKY/WX    TMP DP  RH WIND       PRES   REMARKS
DOWNTOWN L.A.  CLOUDY    64  53  67 CALM      29.92R
L.A. AIRPORT   PTSUNNY   62  55  77 W8        29.93R
SAN DIEGO      CLOUDY    65  52  62 S5        29.94R
BURBANK        SUNNY     62  50  64 CALM      29.92R
ONTARIO        CLOUDY    59  52  77 SW3       29.92R
RIVERSIDE      PTSUNNY   61  52  72 CALM      29.92S
PALM SPRINGS   MOSUNNY   80  37  21 CALM      29.82R
EL CENTRO NAS  SUNNY     80  53  39 N7        29.80R
IMPERIAL       SUNNY     76  53  44 CALM      29.78R
BLYTHE         SUNNY     80  50  34 S3        29.82R
$$

NVZ020-UTZ003-031700-
SOUTHERN NEVADA-UTAH

CITY           SKY/WX    TMP DP  RH WIND       PRES   REMARKS
LAS VEGAS      NOT AVBL
SALT LAKE CITY PTSUNNY   71  38  29 SE9       29.90S
$$

NMZ009-TXZ055-031700-
NEW MEXICO-WEST TEXAS

CITY           SKY/WX    TMP DP  RH WIND       PRES   REMARKS
ALBUQUERQUE    PTSUNNY   67  37  33 W3        30.08S
EL PASO        MOSUNNY   78  37  22 E5        29.99R
$$


........................KEY........................
SKY/WX - SKY CONDITION/WEATHER
TMP    - TEMPERATURE IN FAHRENHEIT
DP     - DEW POINT IN FAHRENHEIT
RH     - RELATIVE HUMIDITY IN PERCENT
WIND   - DIRECTION AND SPEED IN MILES PER HOUR (MPH)
VRB    - VARIABLE WIND DIRECTION
PRES   - MEAN SEA LEVEL PRESSURE IN INCHES OF MERCURY
         F - FALLING PRESSURE   R - RISING PRESSURE
         S - STEADY PRESSURE
VSB    - VISIBILITY IN MILES
HX     - HEAT INDEX IN FAHRENHEIT
WCI    - WIND CHILL INDEX IN FAHRENHEIT
TC     - TEMPERATURE IN CELSIUS WHICH IS ALSO KNOWN AS
         TEMPERATURE IN CENTIGRADE
AFB    - AIR FORCE BASE
         LUKE AFB IS LUKE AIR FORCE BASE
         DAVIS-MONTHAN IS DAVIS-MONTHAN AIR FORCE BASE
NAS    - NAVAL AIR STATION
         EL CENTRO NAS IS EL CENTRO NAVAL AIR STATION
N/A    - NOT AVAILABLE




USA.gov is the U.S. government's official web portal to all federal, state and local government web resources and services.